Back to catalog

NIGCOMSAT 1R

AliveCommunicationsGEO
NORAD 38014·PAYLOAD·🇳🇬 Nigeria

Launched Dec 19, 2011 from Xichang Satellite Launch Center

Loading…

TLE

FreshSource: Space-Track

Epoch: Sep 14, 2026, 14:00 UTC

1 38014U 11077A   26257.58350772  .00000137  00000-0  00000-0 0  9992
2 38014   0.0269 131.6037 0002574 201.2726 273.2717  1.00274594 53856

Track NIGCOMSAT 1R in real time with AllMySat

Download on the App Store